sat.trackr.live / text

‹ back to catalog

LUDI TANCE 1-01A (L-SA*)

NORAD 51284 · 2022-007A

PAYLOAD ACTIVE UNKNOWN

§ Identity

Operator
Country
PRC
Launch date
2022-01-25
Launch site
JSC
Launch vehicle
Mass (kg)
RCS (m²)

External: N2YO · Heavens-Above · Gunter

§ Orbital elements

Epoch: 2026-09-20T23:30:28.475136Z

Period
96.75 min
Inclination
97.8114°
Eccentricity
0.0001580
Mean motion
14.88408715 rev/d
Perigee alt
601.8 km
Apogee alt
604.0 km
Semi-major
6,981.0 km
B*
3.0541e-5
RAAN
270.0437°
Arg perigee
91.3859°
Mean anomaly
268.7538°
Rev number
25,272

§ Raw data

LUDI TANCE 1-01A (L-SA*)1 51284U 22007A   26263.97949624  .00000229  00000+0  30541-4 0  99992 51284  97.8114 270.0437 0001580  91.3859 268.7538 14.88408715252727

JSON: /api/v1/satellites/51284 · /tle

For live sub-satellite position, see the globe view (requires WebGL).

§ Visibility from observer

Set your observer location to see the next 7 days of passes ≥ 10°. The values pass through the URL so the page stays shareable.

No JS? Fill the form by hand. The geolocation button needs JavaScript.

§ Radio — SatNOGS DB

ModeDescriptionDownlinkUplink
FM S-band telemetry 2.210 GHz
FM Telemetry 2.201 GHz

2 transmitters · refreshed weekly from db.satnogs.org